TimeMST,TemperatureF,Dew PointF,Humidity,Sea Level PressureIn,VisibilityMPH,Wind Direction,Wind SpeedMPH,Gust SpeedMPH,PrecipitationIn,Events,Conditions,WindDirDegrees,DateUTC
12:15 AM,21.2,17.6,86,29.75,1.2,SSW,15.0,-,N/A,Snow,Light Snow,200,2013-02-21 07:15:00
12:35 AM,21.2,17.6,86,29.76,2.0,SSW,15.0,-,N/A,Snow,Light Snow,210,2013-02-21 07:35:00
12:55 AM,21.2,17.6,86,29.76,2.5,South,20.7,25.3,N/A,Snow,Light Snow,190,2013-02-21 07:55:00
1:15 AM,21.2,17.6,86,29.77,5.0,SSW,18.4,-,N/A,Rain,Freezing Rain,200,2013-02-21 08:15:00
1:35 AM,21.2,17.6,86,29.78,10.0,South,15.0,-,N/A,Snow,Light Snow,190,2013-02-21 08:35:00
1:55 AM,21.2,17.6,86,29.79,9.0,SSW,16.1,-,N/A,,Overcast,200,2013-02-21 08:55:00
2:15 AM,21.2,17.6,86,29.79,10.0,SSW,18.4,23.0,N/A,,Overcast,200,2013-02-21 09:15:00
2:35 AM,19.4,17.6,93,29.79,10.0,South,18.4,24.2,N/A,,Overcast,190,2013-02-21 09:35:00
2:55 AM,19.4,17.6,93,29.79,10.0,South,17.3,-,N/A,,Mostly Cloudy,190,2013-02-21 09:55:00
3:15 AM,19.4,17.6,93,29.79,10.0,South,17.3,23.0,N/A,,Mostly Cloudy,190,2013-02-21 10:15:00
3:35 AM,19.4,17.6,93,29.80,10.0,SSW,12.7,-,N/A,,Mostly Cloudy,200,2013-02-21 10:35:00
3:55 AM,21.2,17.6,86,29.80,10.0,South,15.0,-,N/A,,Overcast,190,2013-02-21 10:55:00
4:15 AM,21.2,17.6,86,29.81,10.0,SSW,15.0,-,N/A,,Overcast,200,2013-02-21 11:15:00
4:55 AM,21.2,17.6,86,29.82,10.0,South,13.8,18.4,N/A,,Overcast,190,2013-02-21 11:55:00
5:15 AM,19.4,17.6,93,29.82,10.0,South,10.4,-,N/A,,Scattered Clouds,180,2013-02-21 12:15:00
5:35 AM,19.4,15.8,86,29.83,10.0,South,12.7,-,N/A,,Clear,190,2013-02-21 12:35:00
5:55 AM,19.4,17.6,93,29.84,10.0,SSW,16.1,-,N/A,,Partly Cloudy,200,2013-02-21 12:55:00
6:15 AM,21.2,17.6,86,29.84,10.0,SSW,13.8,-,N/A,,Mostly Cloudy,200,2013-02-21 13:15:00
6:35 AM,19.4,17.6,93,29.84,10.0,SSW,13.8,-,N/A,,Mostly Cloudy,200,2013-02-21 13:35:00
6:55 AM,21.2,19.4,93,29.85,10.0,SSW,13.8,-,N/A,,Mostly Cloudy,200,2013-02-21 13:55:00
7:15 AM,23.0,19.4,86,29.86,10.0,SSW,12.7,-,N/A,,Overcast,210,2013-02-21 14:15:00
7:35 AM,23.0,19.4,86,29.87,7.0,SSW,15.0,21.9,N/A,,Overcast,200,2013-02-21 14:35:00
7:55 AM,23.0,19.4,86,29.88,1.8,SSW,13.8,-,N/A,,Overcast,200,2013-02-21 14:55:00
8:15 AM,23.0,19.4,86,29.89,1.8,SSW,11.5,-,N/A,,Overcast,200,2013-02-21 15:15:00
8:35 AM,23.0,21.2,93,29.89,6.0,SSW,15.0,23.0,N/A,,Overcast,200,2013-02-21 15:35:00
8:55 AM,23.0,21.2,93,29.90,8.0,SSW,12.7,-,N/A,,Overcast,200,2013-02-21 15:55:00
9:15 AM,23.0,21.2,93,29.91,8.0,SSW,16.1,-,N/A,,Overcast,210,2013-02-21 16:15:00
9:35 AM,23.0,21.2,93,29.91,7.0,SSW,15.0,21.9,N/A,,Overcast,210,2013-02-21 16:35:00
9:55 AM,23.0,21.2,93,29.91,9.0,South,16.1,-,N/A,,Mostly Cloudy,190,2013-02-21 16:55:00
10:15 AM,24.8,21.2,86,29.91,10.0,SSW,13.8,18.4,N/A,,Overcast,200,2013-02-21 17:15:00
10:35 AM,26.6,21.2,80,29.90,10.0,SSW,15.0,20.7,N/A,,Overcast,200,2013-02-21 17:35:00
10:55 AM,26.6,21.2,80,29.91,10.0,SSW,10.4,-,N/A,,Overcast,200,2013-02-21 17:55:00
11:15 AM,26.6,23.0,86,29.91,10.0,SSW,11.5,-,N/A,,Overcast,200,2013-02-21 18:15:00
11:35 AM,28.4,23.0,80,29.91,10.0,SSW,11.5,-,N/A,,Mostly Cloudy,200,2013-02-21 18:35:00
11:55 AM,28.4,23.0,80,29.91,10.0,SSW,11.5,-,N/A,,Mostly Cloudy,200,2013-02-21 18:55:00
12:15 PM,28.4,23.0,80,29.91,10.0,SSW,15.0,-,N/A,,Overcast,200,2013-02-21 19:15:00
12:35 PM,28.4,23.0,80,29.91,10.0,South,17.3,23.0,N/A,,Overcast,190,2013-02-21 19:35:00
12:55 PM,26.6,23.0,86,29.91,10.0,SSW,15.0,21.9,N/A,,Overcast,200,2013-02-21 19:55:00
1:15 PM,26.6,23.0,86,29.89,10.0,South,13.8,-,N/A,,Overcast,190,2013-02-21 20:15:00
1:35 PM,28.4,23.0,80,29.89,10.0,SSW,15.0,19.6,N/A,,Mostly Cloudy,200,2013-02-21 20:35:00
1:55 PM,28.4,23.0,80,29.89,10.0,SSW,15.0,20.7,N/A,,Mostly Cloudy,200,2013-02-21 20:55:00
2:15 PM,28.4,23.0,80,29.88,10.0,SW,17.3,23.0,N/A,,Mostly Cloudy,220,2013-02-21 21:15:00
2:35 PM,30.2,23.0,75,29.87,10.0,SW,15.0,21.9,N/A,,Partly Cloudy,220,2013-02-21 21:35:00
2:55 PM,30.2,23.0,75,29.87,10.0,SSW,15.0,20.7,N/A,,Partly Cloudy,210,2013-02-21 21:55:00
3:15 PM,30.2,23.0,75,29.88,10.0,SSW,11.5,23.0,N/A,,Scattered Clouds,210,2013-02-21 22:15:00
3:35 PM,30.2,23.0,75,29.88,10.0,SSW,16.1,-,N/A,,Mostly Cloudy,200,2013-02-21 22:35:00
3:55 PM,28.4,23.0,80,29.88,10.0,SSW,16.1,-,N/A,,Mostly Cloudy,200,2013-02-21 22:55:00
4:15 PM,28.4,23.0,80,29.89,10.0,SSW,13.8,19.6,N/A,,Mostly Cloudy,210,2013-02-21 23:15:00
4:35 PM,28.4,21.2,74,29.88,10.0,SSW,13.8,-,N/A,,Mostly Cloudy,200,2013-02-21 23:35:00
4:55 PM,28.4,23.0,80,29.88,10.0,SW,13.8,-,N/A,,Overcast,220,2013-02-21 23:55:00
5:15 PM,28.4,23.0,80,29.88,10.0,SSW,13.8,18.4,N/A,,Mostly Cloudy,210,2013-02-22 00:15:00
5:35 PM,28.4,23.0,80,29.89,9.0,SW,12.7,17.3,N/A,,Mostly Cloudy,220,2013-02-22 00:35:00
5:55 PM,26.6,23.0,86,29.90,6.0,SW,10.4,-,N/A,Rain,Freezing Rain,220,2013-02-22 00:55:00
6:15 PM,26.6,23.0,86,29.90,10.0,SSW,10.4,-,N/A,,Mostly Cloudy,210,2013-02-22 01:15:00
6:35 PM,26.6,23.0,86,29.91,10.0,SSW,11.5,-,N/A,,Partly Cloudy,200,2013-02-22 01:35:00
6:55 PM,26.6,23.0,86,29.92,10.0,South,10.4,-,N/A,,Scattered Clouds,190,2013-02-22 01:55:00
7:15 PM,26.6,23.0,86,29.92,10.0,South,10.4,-,N/A,,Mostly Cloudy,190,2013-02-22 02:15:00
7:35 PM,24.8,21.2,86,29.93,10.0,South,9.2,-,N/A,,Scattered Clouds,190,2013-02-22 02:35:00
8:15 PM,24.8,21.2,86,29.94,10.0,South,8.1,-,N/A,,Partly Cloudy,180,2013-02-22 03:15:00
8:35 PM,24.8,21.2,86,29.94,10.0,South,10.4,-,N/A,,Clear,190,2013-02-22 03:35:00
8:55 PM,24.8,21.2,86,29.95,10.0,SSW,10.4,-,N/A,,Clear,200,2013-02-22 03:55:00
9:15 PM,24.8,21.2,86,29.95,10.0,SSW,8.1,-,N/A,,Clear,200,2013-02-22 04:15:00
9:35 PM,24.8,21.2,86,29.95,10.0,South,8.1,-,N/A,,Clear,190,2013-02-22 04:35:00
9:55 PM,24.8,21.2,86,29.96,10.0,SSW,6.9,-,N/A,,Scattered Clouds,200,2013-02-22 04:55:00
10:15 PM,24.8,21.2,86,29.96,10.0,SSW,8.1,-,N/A,,Scattered Clouds,200,2013-02-22 05:15:00
10:35 PM,24.8,21.2,86,29.96,10.0,South,8.1,-,N/A,,Mostly Cloudy,180,2013-02-22 05:35:00
10:55 PM,24.8,21.2,86,29.95,10.0,South,6.9,-,N/A,,Overcast,180,2013-02-22 05:55:00
11:15 PM,24.8,21.2,86,29.96,10.0,South,6.9,-,N/A,,Mostly Cloudy,170,2013-02-22 06:15:00
11:35 PM,24.8,21.2,86,29.96,10.0,South,5.8,-,N/A,,Overcast,170,2013-02-22 06:35:00
11:55 PM,24.8,21.2,86,29.95,10.0,South,6.9,-,N/A,,Overcast,180,2013-02-22 06:55:00